Find Yaogan 36 02 zu 01 xing

NORAD ID: 54042 Int'l Des: 2022-133 Owner: ZZB Country: CN Constellation: yaogan operational
LEOCIRCULAR

Current View

Loading 3D Globe...

About Yaogan 36 02 zu 01 xing

Description loading...

Upcoming Passes

Passes for default location (London). Set your location on the main map for personalized predictions.

Altitude History

Loading altitude history...

Two-Line Element Set

1 54042U 22133A 26149.63020461 .00002227 00000-0 92803-4 0 9999
2 54042 35.0061 236.4674 0026522 30.7393 329.4870 15.23132903201922
Epoch: May 29, 2026 • Age: 16 hours

Current Status

Altitude 496.3 km
Velocity 7.62 km/s
Sub-Earth Point -21.84°S, 150.31°W
Launch Date Oct 14, 2022
Age 3.6 years
Type military

Technical Details

Classification Payload
Mass 300.00 kg
Dry Mass 300.00 kg
Total Mass 300.00 kg
Length 2.50 m
Diameter 2.50 m
Span 5.00 m
Shape Box + 2 Pan
Manufacturer DFHZ
Phase Status In Orbit
Owner/State ZZB/CN

Most Searched